Hourly Weather Barkowo

Today, 23 September, Wednesday

Time Temperature Precipitation Wind Pressure Humidity
00:00 +16°C° 0 mm 3 mps 743 mmHg 73%
01:00 +16°C° 0 mm 2 mps 743 mmHg 76%
02:00 +16°C° 0 mm 2 mps 743 mmHg 78%
03:00 +15°C° 0 mm 2 mps 743 mmHg 79%
04:00 +15°C° 0 mm 2 mps 743 mmHg 81%
05:00 +15°C° 0 mm 2 mps 743 mmHg 79%
06:00 +16°C° 0 mm 2 mps 743 mmHg 77%
07:00 +16°C° 0 mm 2 mps 743 mmHg 75%
08:00 +18°C° 0 mm 3 mps 743 mmHg 68%
09:00 +20°C° 0 mm 3 mps 742 mmHg 61%
10:00 +22°C° 0 mm 3 mps 742 mmHg 54%
11:00 +24°C° 0 mm 3 mps 742 mmHg 50%
12:00 +25°C° 0 mm 4 mps 742 mmHg 47%
13:00 +26°C° 0 mm 4 mps 742 mmHg 43%
14:00 +26°C° 0 mm 3 mps 742 mmHg 46%
15:00 +25°C° 0 mm 3 mps 741 mmHg 49%
16:00 +25°C° 0 mm 2 mps 741 mmHg 52%
17:00 +23°C° 0 mm 2 mps 741 mmHg 56%
18:00 +21°C° 0 mm 2 mps 741 mmHg 60%
19:00 +19°C° 0 mm 2 mps 741 mmHg 65%
20:00 +19°C° 0 mm 2 mps 741 mmHg 67%
21:00 +18°C° 0 mm 2 mps 741 mmHg 70%
22:00 +18°C° 0 mm 2 mps 741 mmHg 72%
23:00 +17°C° 0 mm 2 mps 741 mmHg 75%

Tomorrow, 24 September, Thursday

Time Temperature Precipitation Wind Pressure Humidity
00:00 +17°C° 0 mm 2 mps 741 mmHg 78%
01:00 +17°C° 0 mm 2 mps 741 mmHg 81%
02:00 +16°C° 0 mm 2 mps 740 mmHg 83%
03:00 +16°C° 0 mm 2 mps 740 mmHg 85%
04:00 +16°C° 0 mm 2 mps 740 mmHg 88%
05:00 +16°C° 0 mm 2 mps 740 mmHg 84%
06:00 +16°C° 0 mm 2 mps 740 mmHg 81%
07:00 +16°C° 0 mm 2 mps 741 mmHg 77%
08:00 +18°C° 0 mm 3 mps 741 mmHg 69%
09:00 +20°C° 0 mm 3 mps 741 mmHg 61%
10:00 +21°C° 0 mm 4 mps 741 mmHg 53%
11:00 +22°C° 0 mm 4 mps 741 mmHg 51%
12:00 +23°C° 0 mm 4 mps 741 mmHg 49%
13:00 +25°C° 0 mm 5 mps 741 mmHg 47%
14:00 +25°C° 0 mm 4 mps 741 mmHg 49%
15:00 +24°C° 0 mm 3 mps 741 mmHg 52%
16:00 +24°C° 0 mm 3 mps 741 mmHg 54%
17:00 +21°C° 0.1 mm 2 mps 741 mmHg 62%
18:00 +19°C° 0.1 mm 2 mps 741 mmHg 70%
19:00 +18°C° 0.1 mm 2 mps 741 mmHg 78%
20:00 +18°C° 0 mm 1 mps 741 mmHg 81%
21:00 +18°C° 0 mm 1 mps 741 mmHg 83%
22:00 +16°C° 0 mm 1 mps 741 mmHg 86%
23:00 +16°C° 0 mm 1 mps 741 mmHg 86%

Day after tomorrow, 25 September, Friday

Time Temperature Precipitation Wind Pressure Humidity
00:00 +16°C° 0 mm 1 mps 741 mmHg 87%
01:00 +15°C° 0 mm 2 mps 741 mmHg 88%
02:00 +15°C° 0 mm 2 mps 740 mmHg 88%
03:00 +15°C° 0 mm 2 mps 740 mmHg 89%
04:00 +15°C° 0 mm 2 mps 739 mmHg 90%
05:00 +14°C° 0 mm 3 mps 739 mmHg 87%
06:00 +16°C° 0 mm 3 mps 738 mmHg 85%
07:00 +15°C° 0 mm 4 mps 738 mmHg 83%
08:00 +17°C° 0 mm 5 mps 737 mmHg 76%
09:00 +20°C° 0 mm 6 mps 736 mmHg 69%
10:00 +21°C° 0 mm 7 mps 736 mmHg 62%
11:00 +22°C° 0.3 mm 7 mps 735 mmHg 61%
12:00 +23°C° 0.3 mm 7 mps 734 mmHg 59%
13:00 +23°C° 0.3 mm 7 mps 733 mmHg 58%
14:00 +22°C° 1 mm 7 mps 733 mmHg 67%
15:00 +20°C° 1 mm 7 mps 733 mmHg 76%
16:00 +17°C° 1 mm 6 mps 733 mmHg 85%
17:00 +16°C° 0.2 mm 6 mps 733 mmHg 86%
18:00 +16°C° 0.2 mm 5 mps 733 mmHg 88%
19:00 +15°C° 0.2 mm 5 mps 733 mmHg 89%
20:00 +15°C° 0 mm 4 mps 734 mmHg 89%
21:00 +14°C° 0 mm 3 mps 734 mmHg 89%
22:00 +15°C° 0 mm 2 mps 735 mmHg 89%
23:00 +14°C° 0 mm 2 mps 735 mmHg 90%

26 September, Saturday

Time Temperature Precipitation Wind Pressure Humidity
00:00 +14°C° 0 mm 2 mps 735 mmHg 91%
01:00 +14°C° 0 mm 1 mps 735 mmHg 92%
02:00 +14°C° 0 mm 2 mps 735 mmHg 91%
03:00 +13°C° 0 mm 2 mps 735 mmHg 90%
04:00 +12°C° 0 mm 3 mps 735 mmHg 89%
05:00 +12°C° 0.1 mm 3 mps 735 mmHg 89%
06:00 +13°C° 0.1 mm 4 mps 735 mmHg 90%
07:00 +13°C° 0.1 mm 4 mps 734 mmHg 90%
08:00 +13°C° 2.8 mm 5 mps 734 mmHg 92%
09:00 +13°C° 2.8 mm 5 mps 734 mmHg 94%
10:00 +14°C° 2.8 mm 5 mps 734 mmHg 95%
11:00 +15°C° 1.5 mm 4 mps 734 mmHg 93%
12:00 +17°C° 1.5 mm 4 mps 734 mmHg 91%
13:00 +17°C° 1.5 mm 4 mps 733 mmHg 89%
14:00 +18°C° 0.1 mm 4 mps 733 mmHg 89%
15:00 +18°C° 0.1 mm 4 mps 733 mmHg 88%
16:00 +18°C° 0.1 mm 4 mps 733 mmHg 88%
17:00 +17°C° 0.6 mm 3 mps 733 mmHg 90%
18:00 +17°C° 0.6 mm 3 mps 733 mmHg 92%
19:00 +17°C° 0.6 mm 3 mps 734 mmHg 94%
20:00 +17°C° 0.1 mm 3 mps 733 mmHg 94%
21:00 +16°C° 0.1 mm 3 mps 733 mmHg 95%
22:00 +16°C° 0.1 mm 3 mps 733 mmHg 96%
23:00 +17°C° 0.8 mm 3 mps 733 mmHg 93%

27 September, Sunday

Time Temperature Precipitation Wind Pressure Humidity
00:00 +17°C° 0.8 mm 4 mps 733 mmHg 91%
01:00 +16°C° 0.8 mm 5 mps 733 mmHg 89%
02:00 +16°C° 0 mm 5 mps 732 mmHg 85%
03:00 +16°C° 0 mm 6 mps 732 mmHg 80%
04:00 +16°C° 0 mm 6 mps 732 mmHg 76%
05:00 +16°C° 0 mm 6 mps 732 mmHg 75%
06:00 +16°C° 0 mm 7 mps 732 mmHg 74%
07:00 +16°C° 0 mm 7 mps 732 mmHg 73%
08:00 +17°C° 0 mm 7 mps 733 mmHg 70%
09:00 +18°C° 0 mm 7 mps 733 mmHg 68%
10:00 +20°C° 0 mm 8 mps 733 mmHg 65%
11:00 +20°C° 0 mm 7 mps 734 mmHg 66%
12:00 +20°C° 0 mm 7 mps 734 mmHg 67%
13:00 +20°C° 0 mm 7 mps 734 mmHg 68%
14:00 +19°C° 0.4 mm 5 mps 735 mmHg 74%
15:00 +18°C° 0.4 mm 4 mps 735 mmHg 80%
16:00 +17°C° 0.4 mm 2 mps 735 mmHg 86%
17:00 +16°C° 0.4 mm 2 mps 735 mmHg 87%
18:00 +16°C° 0.4 mm 2 mps 736 mmHg 88%
19:00 +16°C° 0.4 mm 2 mps 736 mmHg 89%
20:00 +16°C° 0.3 mm 2 mps 736 mmHg 90%
21:00 +14°C° 0.3 mm 3 mps 736 mmHg 90%
22:00 +14°C° 0.3 mm 3 mps 737 mmHg 91%
23:00 +14°C° 0.5 mm 3 mps 737 mmHg 91%

28 September, Monday

Time Temperature Precipitation Wind Pressure Humidity
00:00 +14°C° 0.5 mm 3 mps 737 mmHg 92%
01:00 +14°C° 0.5 mm 3 mps 737 mmHg 92%
02:00 +13°C° 0.4 mm 3 mps 737 mmHg 92%
03:00 +12°C° 0.4 mm 4 mps 737 mmHg 92%
04:00 +12°C° 0.4 mm 5 mps 737 mmHg 93%
05:00 +10°C° 0.1 mm 5 mps 738 mmHg 91%
06:00 +9°C° 0.1 mm 5 mps 738 mmHg 90%
07:00 +9°C° 0.1 mm 5 mps 739 mmHg 89%
08:00 +10°C° 0 mm 4 mps 739 mmHg 86%
09:00 +11°C° 0 mm 4 mps 740 mmHg 82%
10:00 +12°C° 0 mm 4 mps 741 mmHg 79%
11:00 +12°C° 0 mm 4 mps 741 mmHg 74%
12:00 +13°C° 0 mm 4 mps 741 mmHg 70%
13:00 +14°C° 0 mm 4 mps 742 mmHg 66%
14:00 +14°C° 0 mm 4 mps 742 mmHg 65%
15:00 +14°C° 0 mm 3 mps 742 mmHg 65%
16:00 +14°C° 0 mm 3 mps 742 mmHg 64%
17:00 +13°C° 0 mm 3 mps 743 mmHg 69%
18:00 +12°C° 0 mm 2 mps 743 mmHg 74%
19:00 +10°C° 0 mm 2 mps 744 mmHg 79%
20:00 +10°C° 0 mm 2 mps 744 mmHg 80%
21:00 +9°C° 0 mm 2 mps 744 mmHg 81%
22:00 +9°C° 0 mm 2 mps 745 mmHg 83%
23:00 +9°C° 0 mm 2 mps 745 mmHg 84%
Show more